Change the Weather History Date:

Monday, November 19, 2012

  Actual Average Record
Temperature  
Mean Temperature 48 °F -  
Max Temperature 53 °F 42 °F 64 °F (1953)
Min Temperature 42 °F 30 °F 16 °F (1992)
Degree Days  
Heating Degree Days 18    
Moisture  
Dew Point 36 °F    
Average Humidity 65    
Maximum Humidity 79    
Minimum Humidity 53    
Precipitation  
Precipitation 0.00 in - - ()
Sea Level Pressure  
Sea Level Pressure 30.23 in    
Wind  
Wind Speed 6 mph (SSE)    
Max Wind Speed 9 mph    
Max Gust Speed -    
Visibility 10 miles    
Events      
Averages and records for this station are not official NWS values.
T = Trace of Precipitation, MM = Missing Value Source: NWS Daily Summary

Daily Weather History Graph

Daily Weather History Graph

Search for Another Location

Airport or City:

Trip Planner

Search our weather history database for the weather conditions in past years. The results will help you decide how hot, cold, wet, or windy it might be!

Date:

Astronomy

Nov. 19, 2012 Rise Set
Actual Time 7:48 AM EST 5:07 PM EST
Civil Twilight 7:15 AM EST 5:39 PM EST
Nautical Twilight 6:38 AM EST 6:16 PM EST
Astronomical Twilight 6:03 AM EST 6:51 PM EST
Moon 12:43 PM EST (11/19) 11:41 PM EST (11/19)
Length of Visible Light 10h 24m
Length of Day
9h 19m
Waxing Crescent, 40% of the Moon is Illuminated
Nov 19
Waxing Crescent
Nov 20
First Quarter
Nov 28
Full
Dec 6
Last Quarter
Dec 13
New

Hourly Weather History & Observations

Time (EST) Temp. Windchill Dew Point Humidity Pressure Visibility Wind Dir Wind Speed Gust Speed Precip Events Conditions
12:16 AM 45.5 °F 40.8 °F 36.0 °F 69% 30.33 in 10.0 mi SSE 9.2 mph - N/A   Clear
12:36 AM 45.5 °F 41.8 °F 36.9 °F 72% 30.33 in 10.0 mi SE 6.9 mph - N/A   Clear
12:57 AM 45.5 °F 40.8 °F 37.0 °F 72% 30.32 in 10.0 mi SE 9.2 mph - N/A   Clear
1:16 AM 45.5 °F 41.8 °F 36.7 °F 71% 30.32 in 10.0 mi SSE 6.9 mph - N/A   Clear
1:37 AM 44.8 °F 40.4 °F 37.0 °F 74% 30.32 in 10.0 mi South 8.1 mph - N/A   Clear
1:57 AM 45.1 °F 41.4 °F 37.0 °F 73% 30.32 in 10.0 mi SSE 6.9 mph - N/A   Clear
2:16 AM 44.8 °F 41.6 °F 36.5 °F 73% 30.32 in 10.0 mi SSE 5.8 mph - N/A   Clear
2:37 AM 44.6 °F 40.7 °F 36.1 °F 72% 30.32 in 10.0 mi SSE 6.9 mph - N/A   Clear
2:56 AM 44.6 °F 40.2 °F 36.5 °F 73% 30.32 in 10.0 mi SSE 8.1 mph - N/A   Clear
3:16 AM 44.2 °F 41.0 °F 36.5 °F 74% 30.32 in 10.0 mi SSE 5.8 mph - N/A   Clear
3:36 AM 44.2 °F 41.0 °F 36.7 °F 75% 30.31 in 10.0 mi SSE 5.8 mph - N/A   Clear
3:56 AM 44.2 °F 40.3 °F 36.9 °F 75% 30.31 in 10.0 mi SSE 6.9 mph - N/A   Clear
4:17 AM 44.8 °F 40.4 °F 36.0 °F 71% 30.31 in 10.0 mi SSE 8.1 mph - N/A   Clear
4:36 AM 45.0 °F 41.2 °F 35.8 °F 70% 30.30 in 10.0 mi SSE 6.9 mph - N/A   Clear
4:57 AM 44.8 °F 42.4 °F 35.6 °F 70% 30.30 in 10.0 mi South 4.6 mph - N/A   Clear
5:16 AM 44.6 °F 40.7 °F 35.1 °F 69% 30.30 in 10.0 mi SSE 6.9 mph - N/A   Clear
5:36 AM 44.4 °F 41.2 °F 35.1 °F 70% 30.30 in 10.0 mi SSE 5.8 mph - N/A   Clear
5:57 AM 44.1 °F 41.5 °F 35.6 °F 72% 30.30 in 10.0 mi SSE 4.6 mph - N/A   Clear
6:16 AM 43.7 °F 39.7 °F 35.6 °F 73% 30.29 in 10.0 mi South 6.9 mph - N/A   Clear
6:36 AM 44.2 °F 40.3 °F 36.1 °F 73% 30.29 in 10.0 mi South 6.9 mph - N/A   Clear
6:57 AM 44.2 °F 41.0 °F 35.6 °F 72% 30.28 in 10.0 mi SE 5.8 mph - N/A   Clear
7:16 AM 43.3 °F 39.2 °F 35.4 °F 74% 30.28 in 10.0 mi SSE 6.9 mph - N/A   Clear
7:36 AM 43.0 °F 40.3 °F 36.3 °F 77% 30.28 in 10.0 mi SSE 4.6 mph - N/A   Clear
7:57 AM 42.8 °F 40.1 °F 36.7 °F 79% 30.28 in 10.0 mi SE 4.6 mph - N/A   Clear
8:37 AM 43.9 °F 39.9 °F 37.2 °F 77% 30.28 in 10.0 mi SSE 6.9 mph - N/A   Clear
8:57 AM 45.3 °F 41.6 °F 37.4 °F 74% 30.27 in 10.0 mi SSE 6.9 mph - N/A   Clear
9:16 AM 46.8 °F - 37.6 °F 70% 30.27 in 10.0 mi SSE 5.8 mph - N/A   Clear
9:37 AM 48.2 °F - 37.0 °F 65% 30.27 in 10.0 mi SSE 5.8 mph - N/A   Clear
9:56 AM 49.3 °F - 37.6 °F 64% 30.27 in 10.0 mi SSE 5.8 mph - N/A   Clear
10:16 AM 49.3 °F - 37.6 °F 64% 30.26 in 10.0 mi SSE 3.5 mph - N/A   Clear
10:37 AM 48.4 °F - 37.0 °F 65% 30.26 in 10.0 mi SSE 5.8 mph - N/A   Clear
10:56 AM 48.2 °F - 36.9 °F 65% 30.26 in 10.0 mi South 6.9 mph - N/A   Clear
11:16 AM 48.6 °F - 37.2 °F 65% 30.25 in 10.0 mi SSE 6.9 mph - N/A   Clear
11:37 AM 49.3 °F - 37.4 °F 64% 30.25 in 10.0 mi South 5.8 mph - N/A   Clear
11:56 AM 51.6 °F - 37.6 °F 59% 30.24 in 10.0 mi South 3.5 mph - N/A   Scattered Clouds
12:16 PM 51.4 °F - 36.9 °F 58% 30.23 in 10.0 mi SSE 5.8 mph - N/A   Scattered Clouds
12:37 PM 51.3 °F - 37.2 °F 59% 30.22 in 10.0 mi SSE 4.6 mph - N/A   Clear
12:56 PM 51.8 °F - 37.4 °F 58% 30.21 in 10.0 mi SSE 4.6 mph - N/A   Clear
1:16 PM 51.8 °F - 37.2 °F 58% 30.21 in 10.0 mi SSE 3.5 mph - N/A   Clear
1:37 PM 51.8 °F - 37.2 °F 58% 30.21 in 10.0 mi South 4.6 mph - N/A   Scattered Clouds
1:56 PM 52.9 °F - 36.7 °F 54% 30.20 in 10.0 mi South 6.9 mph - N/A   Scattered Clouds
2:17 PM 53.2 °F - 36.7 °F 53% 30.20 in 10.0 mi SSE 4.6 mph - N/A   Scattered Clouds
2:36 PM 52.7 °F - 35.8 °F 53% 30.19 in 10.0 mi South 4.6 mph - N/A   Clear
2:56 PM 51.8 °F - 37.4 °F 58% 30.19 in 10.0 mi SSE 3.5 mph - N/A   Clear
3:17 PM 51.8 °F - 37.4 °F 58% 30.20 in 10.0 mi South 3.5 mph - N/A   Scattered Clouds
3:36 PM 51.1 °F - 36.7 °F 58% 30.19 in 10.0 mi Calm Calm - N/A   Mostly Cloudy
3:56 PM 50.7 °F - 36.3 °F 58% 30.18 in 10.0 mi SE 4.6 mph - N/A   Overcast
4:17 PM 50.2 °F - 36.5 °F 59% 30.18 in 10.0 mi SSE 5.8 mph - N/A   Overcast
4:36 PM 49.5 °F - 36.1 °F 60% 30.18 in 10.0 mi SSE 3.5 mph - N/A   Mostly Cloudy
4:57 PM 49.3 °F - 36.3 °F 61% 30.18 in 10.0 mi South 4.6 mph - N/A   Overcast
5:17 PM 49.5 °F - 35.6 °F 59% 30.17 in 10.0 mi SSE 4.6 mph - N/A   Overcast
5:36 PM 49.6 °F - 35.1 °F 57% 30.16 in 10.0 mi SSE 4.6 mph - N/A   Overcast
5:57 PM 50.0 °F - 35.1 °F 57% 30.16 in 10.0 mi South 5.8 mph - N/A   Overcast
6:16 PM 50.4 °F - 34.7 °F 55% 30.16 in 10.0 mi South 6.9 mph - N/A   Overcast
6:36 PM 50.5 °F - 35.1 °F 55% 30.16 in 10.0 mi South 3.5 mph - N/A   Overcast
6:57 PM 50.4 °F - 35.2 °F 56% 30.16 in 10.0 mi South 3.5 mph - N/A   Overcast
7:16 PM 50.0 °F - 35.1 °F 57% 30.15 in 10.0 mi Calm Calm - N/A   Mostly Cloudy
7:36 PM 50.0 °F - 35.1 °F 57% 30.15 in 10.0 mi South 3.5 mph - N/A   Scattered Clouds
7:56 PM 50.0 °F - 35.6 °F 58% 30.15 in 10.0 mi SSE 3.5 mph - N/A   Mostly Cloudy
8:16 PM 49.6 °F - 36.0 °F 59% 30.14 in 10.0 mi SE 3.5 mph - N/A   Overcast
8:56 PM 49.5 °F - 36.0 °F 60% 30.14 in 10.0 mi SE 5.8 mph - N/A   Overcast
9:16 PM 49.5 °F - 36.1 °F 60% 30.13 in 10.0 mi SSE 4.6 mph - N/A   Overcast
9:37 PM 49.5 °F - 36.5 °F 61% 30.13 in 10.0 mi SSE 4.6 mph - N/A   Overcast
10:37 PM 49.3 °F - 37.4 °F 64% 30.12 in 10.0 mi SSE 3.5 mph - N/A   Mostly Cloudy
10:56 PM 49.3 °F - 38.1 °F 65% 30.12 in 10.0 mi SSE 4.6 mph - N/A   Overcast
11:17 PM 49.1 °F - 37.8 °F 65% 30.11 in 10.0 mi South 4.6 mph - N/A   Overcast
11:36 PM 48.9 °F - 37.0 °F 64% 30.11 in 10.0 mi South 3.5 mph - N/A   Overcast
11:56 PM 48.2 °F - 36.7 °F 64% 30.11 in 10.0 mi South 4.6 mph - N/A   Overcast